Probability
0 0 0 0 0 0 0 0 0 0 0 0 0 0 0 0 0 0 0 0 0 0 0 0 0 0 0 0 0 0 0 0 0 0 0 0 0 0 0 0 0 0 0 0 0 0 0 0 0
0 0 0 0 0 0 0 0 0 0 0 0 0 0 0 0 0 0 0 0 0 0 0 0 0 0 0 0 0 0 0 0 0 0 0 0 0 0 0 0 0 0 0 0 0 0 0 0 0
0 0 0 0 0 0 0 0 0 0 0 0 0 0 0 0 0 0 0 0 0 0 0 0 0 0 0 0 0 0 0 0 0 0 0 0 0 0 0 0 0 0 0 0 0 0 0 0 0
0 0 0 0 0 0 0 0 0 0 0 0 0 0 0 0 0 0 0 0 0 0 0 0 0 0 0 0 0 0 0 0 0 0 0 0 0 0 0 0 0 0 0 0 0 0 0 0 0
0 0 0 0 0 0 0 0 0 0 0 0 0 0 0 0 0 0 0 0 0 0 0 0 0 0 0 0 0 0 0 0 0 0 0 0 0 0 0 0 0 0 0 0 0 0 0 0 0
0 0 0 0 0 0 0 0 0 0 0 0 0 0 0 0 0 0 0 0 0 0 0 0 0 0 0 0 0 0 0 0 0 0 0 0 0 0 0 0 0 0 0 0 0 0 0 0 0
0 0 0 0 0 0 0 0 0 0 0 0 0 0 0 0 0 0 0 0 0 0 0 0 0 0 0 0 0 0 0 0 0 0 0 0 0 0 0 0 0 0 0 0 0 0 0 0 0
0 0 0 0 0 0 0 0 0 0 0 0 0 0 0 0 0 0 0 0 0 0 0 0 0 0 0 0 0 0 0 0 0 0 0 0 0 0 0 0 0 0 0 0 0 0 0 0 0
0 0 0 0 0 0 0 0 0 0 0 0 0 0 0 0 0 0 0 0 0 0 0 0 0 0 0 0 0 0 0 0 0 0 0 0 0 0 0 0 0 0 0 0 0 0 0 0 0
0 0 0 0 0 0 0 0 0 0 0 0 0 0 0 0 0 0 0 0 0 0 0 0 0 0 0 0 0 0 0 0 0 0 0 0 0 0 0 0 0 0 0 0 0 0 0 0 0
0 0 0 0 0 0 0 0 0 0 0 0 0 0 0 0 0 0 0 0 0 0 0 0 0 0 0 0 0 0 0 0 0 0 0 0 0 0 0 0 0 0 0 0 0 0 0 0 0
0 0 0 0 0 0 0 0 0 0 0 0 0 0 0 0 0 0 0 0 0 0 0 0 0 0 0 0 0 0 0 0 0 0 0 0 0 0 0 0 0 0 0 0 0 0 0 0 0
0 0 0 0 0 0 0 0 0 0 0 0 0 0 0 0 0 0 0 0 0 0 0 0 0 0 0 0 0 0 0 0 0 0 0 0 0 0 0 0 0 0 0 0 0 0 0 0 0
0 0 0 0 0 0 0 0 0 0 0 0 0 0 0 0 0 0 0 0 0 0 0 0 0 0 0 0 0 0 0 0 0 0 0 0 0 0 0 0 0 0 0 0 0 0 0 0 0
0 0 0 0 0 0 0 0 0 0 0 0 0 0 0 0 0 0 0 0 0 0 0 0 0 0 0 0 0 0 0 0 0 0 0 0 0 0 0 0 0 0 0 0 0 0 0 0 0
0 0 0 0 0 0 0 0 0 0 0 0 0 0 0 0 0 0 0 0 0 0 0 0 0 0 0 0 0 0 0 0 0 0 0 0 0 0 0 0 0 0 0 0 0 0 0 0 0
0 0 0 0 0 0 0 0 0 0 0 0 0 0 0 0 0 0 0 0 0 0 0 0 0 0 0 0 0 0 0 0 0 0 0 0 0 0 0 0 0 0 0 0 0 0 0 0 0
0 0 0 0 0 0 0 0 0 0 0 0 0 0 0 0 0 0 0 0 0 0 0 0 0 0 0 0 0 0 0 0 0 0 0 0 0 0 0 0 0 0 0 0 0 0 0 0 0
0 0 0 0 0 0 0 0 0 0 0 0 0 0 0 0 0 0 0 0 0 0 0 0 0 0 0 0 0 0 0 0 0 0 0 0 0 0 0 0 0 0 0 0 0 0 0 0 0
0 0 0 0 0 0 0 0 0 0 0 0 0 0 0 0 0 0 0 0 0 0 0 0 0 0 0 0 0 0 0 0 0 0 0 0 0 0 0 0 0 0 0 0 0 0 0 0 0
0 0 0 0 0 0 0 0 0 0 0 0 0 0 0 0 0 0 0 0 0 0 0 0 0 0 0 0 0 0 0 0 0 0 0 0 0 0 0 0 0 0 0 0 0 0 0 0 0
0 0 0 0 0 0 0 0 0 0 0 0 0 0 0 0 0 0 0 0 0 0 0 0 0 0 0 0 0 0 0 0 0 0 0 0 0 0 0 0 0 0 0 0 0 0 0 0 0
0 0 0 0 0 0 0 0 0 0 0 0 0 0 0 0 0 0 0 0 0 0 0 0 0 0 0 0 0 0 0 0 0 0 0 0 0 0 0 0 0 0 0 0 0 0 0 0 0
0 0 0 0 0 0 0 0 0 0 0 0 0 0 0 0 0 0 0 0 0 0 0 0 0 0 0 0 0 0 0 0 0 0 0 0 0 0 0 0 0 0 0 0 0 0 0 0 0
0 0 0 0 0 0 0 0 0 0 0 0 0 0 0 0 0 0 0 0 0 0 0 0 0 0 0 0 0 0 0 0 0 0 0 0 0 0 0 0 0 0 0 0 0 0 0 0 0
0 0 0 0 0 0 0 0 0 0 0 0 0 0 0 0 0 0 0 0 0 0 0 0 0 0 0 0 0 0 0 0 0 0 0 0 0 0 0 0 0 0 0 0 0 0 0 0 0
0 0 0 0 0 0 0 0 0 0 0 0 0 0 0 0 0 0 0 0 0 0 0 0 0 0 0 0 0 0 0 0 0 0 0 0 0 0 0 0 0 0 0 0 0 0 0 0 0
0 0 0 0 0 0 0 0 0 0 0 0 0 0 0 0 0 0 0 0 0 0 0 0 0 0 0 0 0 0 0 0 0 0 0 0 0 0 0 0 0 0 0 0 0 0 0 0 0
0 0 0 0 0 0 0 0 0 0 0 0 0 0 0 0 0 0 0 0 0 0 0 0 0 0 0 0 0 0 0 0 0 0 0 0 0 0 0 0 0 0 0 0 0 0 0 0 0
0 0 0 0 0 0 0 0 0 0 0 0 0 0 0 0 0 0 0 0 0 0 0 0 0 0 0 0 0 0 0 0 0 0 0 0 0 0 0 0 0 0 0 0 0 0 0 0 0
Wind_Speed
8 5 3 5 7 6 0 2 1 2 1 1 3 5 7 5 4 3 2 6 8 7 6 9 11 13 13 13 12 12 13 14 15 15 15 15 16 16 16 16 16 16 17 18 18 18 18 18 18
4 4 6 6 6 2 3 3 2 3 4 4 4 4 4 2 1 6 5 6 8 8 6 8 11 13 13 13 12 12 13 13 14 15 15 15 15 15 15 15 15 16 16 17 17 17 17 17 17
3 5 6 5 4 4 3 3 4 2 3 3 3 3 3 3 4 6 5 9 8 7 6 8 11 13 13 13 12 12 12 13 14 14 15 15 15 15 15 15 15 15 16 16 17 17 17 16 16
4 5 6 5 1 4 4 3 4 5 2 2 4 4 2 0 5 5 9 10 9 7 6 8 11 13 13 13 13 12 12 13 13 14 14 14 15 14 14 14 14 14 15 15 16 16 15 15 15
5 5 4 2 2 3 3 3 5 4 4 2 4 5 2 3 5 10 11 10 10 8 6 7 11 12 12 13 13 12 12 13 13 13 13 13 13 13 13 13 13 14 14 15 15 15 14 14 14
5 5 3 2 4 4 3 3 4 3 3 3 5 5 1 1 7 11 10 9 8 8 6 6 10 11 11 11 12 12 12 12 12 12 12 12 12 12 13 12 12 13 13 14 14 14 13 13 13
5 4 3 3 2 3 3 4 5 5 4 5 6 6 1 3 5 9 8 8 7 7 6 5 5 7 9 10 10 10 10 11 11 12 11 11 10 11 11 11 11 12 12 13 13 13 13 13 12
4 4 2 2 3 4 2 3 3 6 4 3 4 8 6 7 8 9 9 8 8 6 6 5 5 5 5 6 9 10 10 10 10 11 10 9 9 9 9 8 10 11 11 11 12 12 12 12 11
4 4 3 5 6 4 1 2 1 2 5 2 1 3 3 13 13 12 10 8 8 8 7 6 6 5 5 5 7 8 9 9 9 8 10 8 5 5 5 6 8 9 10 10 10 11 11 10 10
4 4 7 5 5 3 2 4 5 4 3 2 0 2 7 13 15 15 13 13 12 11 10 7 7 6 5 5 4 4 4 5 5 4 5 4 3 3 4 6 7 8 8 8 9 10 9 7 4
5 7 5 4 4 2 2 3 4 8 5 9 9 10 13 13 14 13 13 13 12 11 11 10 8 7 6 4 4 3 3 3 4 5 5 4 3 3 3 2 3 4 5 4 5 5 3 3 3
3 4 4 3 2 2 3 3 4 7 9 6 9 14 17 18 17 16 15 12 10 11 12 11 10 8 6 5 5 4 3 3 3 4 5 4 3 3 2 2 2 2 2 2 2 2 3 3 3
4 4 3 3 2 2 2 4 5 6 4 1 8 12 16 18 16 12 9 9 9 11 12 12 11 10 8 6 5 5 5 4 4 4 4 4 3 3 3 2 2 2 1 2 1 1 1 2 2
6 4 3 2 1 1 3 3 3 7 2 5 10 13 15 16 14 10 9 11 11 12 12 11 12 11 9 8 6 6 6 5 4 4 5 5 4 4 3 3 2 2 2 2 1 1 1 1 1
2 2 4 3 2 2 2 4 6 4 5 6 8 11 12 11 10 13 13 13 12 11 10 11 11 10 10 9 8 6 6 5 5 5 5 6 5 5 4 3 3 2 2 2 1 1 1 1 1
3 2 3 4 3 3 5 8 8 4 6 7 8 8 10 10 11 10 10 9 9 9 10 11 10 11 11 9 8 6 6 6 5 5 5 6 6 6 5 4 3 3 3 2 2 1 0 1 1
2 4 5 4 3 3 6 7 7 4 6 8 8 9 10 10 10 10 10 10 10 11 11 11 11 12 12 10 7 6 6 6 5 5 5 6 7 7 5 4 4 4 3 3 2 2 2 2 2
6 5 5 7 3 4 5 7 8 3 6 8 8 8 9 11 16 12 10 10 9 10 10 11 11 11 10 8 6 5 5 6 5 6 6 7 7 8 6 4 5 5 3 3 3 3 2 2 2
7 7 6 5 3 4 6 8 10 5 5 8 8 9 11 15 12 7 8 9 9 10 11 12 13 12 10 8 8 8 8 6 6 6 7 8 8 8 7 5 5 5 5 5 5 3 3 2 1
5 6 5 2 0 3 4 9 10 8 7 9 10 11 13 12 9 8 9 10 12 13 14 13 14 13 12 10 8 5 5 5 6 6 7 9 9 8 7 7 6 6 5 5 5 4 3 2 3
7 7 6 4 1 1 1 8 9 9 7 8 8 9 9 12 13 11 10 11 12 14 16 14 15 15 14 11 6 4 4 3 5 6 6 8 9 9 8 9 7 7 7 6 7 7 6 4 3
9 5 6 5 3 3 3 7 9 8 9 10 11 10 12 12 12 11 10 10 13 15 13 14 14 14 13 13 10 10 10 9 8 6 6 7 8 9 9 9 8 8 6 6 6 6 5 4 3
6 7 6 4 3 2 3 5 10 4 9 11 12 14 15 14 13 13 12 13 12 11 10 11 12 13 13 13 14 13 11 8 5 5 7 8 7 8 8 8 8 7 6 6 6 6 6 5 4
8 7 6 4 3 7 9 6 12 7 11 9 10 13 14 13 12 12 10 8 8 7 7 8 11 12 12 14 15 15 14 10 8 7 8 6 5 5 7 7 7 7 6 6 6 6 6 5 4
9 9 4 2 4 9 4 7 15 9 10 11 11 11 11 10 10 10 9 9 8 8 9 9 11 12 12 14 15 15 14 13 12 10 9 7 5 5 6 6 6 5 5 5 5 5 5 5 4
13 13 10 9 8 5 3 11 13 8 7 7 8 8 7 8 8 8 9 8 8 8 8 9 10 11 11 12 13 12 11 9 8 9 8 8 6 5 5 6 6 5 5 5 5 4 4 4 4
12 9 7 6 2 3 7 9 13 6 8 9 10 9 11 9 8 7 6 5 6 6 7 8 8 8 9 10 10 10 10 9 8 8 7 6 5 5 6 6 6 5 5 5 5 4 4 4 3
10 12 7 7 8 6 7 7 8 5 9 11 11 12 12 7 6 5 4 4 4 4 4 5 6 6 6 7 7 7 8 8 7 7 7 7 6 6 7 6 6 6 5 5 5 5 4 5 4
9 9 8 8 6 8 6 10 9 10 11 11 12 8 6 6 6 5 4 3 3 3 4 4 4 4 4 5 5 6 6 7 7 7 7 7 7 7 8 7 7 7 6 6 6 6 5 6 5
8 11 11 11 9 7 4 11 6 8 7 6 7 6 5 6 5 4 5 5 4 4 4 4 4 4 4 4 4 5 5 6 7 7 7 7 8 7 7 8 8 7 7 6 7 6 6 6 6
Wind_Direction
342 353 43 51 52 51 59 259 189 144 160 106 134 142 148 148 162 172 125 136 131 135 136 130 127 122 117 111 107 105 101 98 97 94 92 90 88 87 86 86 86 87 86 84 83 83 84 84 82
342 6 46 56 80 71 278 256 191 185 154 121 82 94 105 111 93 120 135 143 134 132 127 127 128 126 122 116 111 107 104 101 98 97 96 94 91 90 89 88 87 88 87 85 83 83 85 85 83
16 46 70 70 103 173 228 227 186 114 136 121 98 75 116 153 148 152 155 139 125 122 122 129 130 131 126 121 116 111 108 106 102 100 98 95 93 91 90 89 89 88 87 86 85 84 85 86 84
46 40 54 74 173 218 224 230 163 130 127 91 117 96 73 90 165 156 140 134 127 124 126 135 134 136 131 128 123 118 114 111 107 103 102 98 96 95 93 91 90 89 89 87 85 85 86 87 85
54 65 59 45 258 258 246 216 159 152 153 129 123 119 91 3 113 131 138 138 140 134 130 138 137 138 135 134 129 124 119 115 113 109 106 105 103 100 97 95 93 92 91 89 87 86 87 87 87
55 63 90 229 267 284 268 171 152 148 140 143 132 120 108 100 134 141 142 140 143 140 132 132 138 138 138 136 134 129 124 120 119 116 113 110 108 106 103 101 97 96 93 90 88 87 88 88 89
100 104 166 204 255 280 242 154 160 157 160 187 159 122 143 161 151 138 134 134 138 137 131 128 133 137 138 137 134 131 128 125 121 119 113 107 105 106 105 103 102 100 97 93 89 87 87 87 87
118 113 154 200 210 252 226 154 171 160 176 146 143 147 185 180 142 128 130 140 145 143 142 138 132 129 129 132 135 132 130 126 121 117 110 105 102 102 100 99 103 103 100 96 92 88 86 84 83
93 99 196 209 199 236 205 159 133 117 119 132 250 190 187 137 138 139 144 153 162 165 163 155 146 137 132 132 138 134 131 128 122 119 118 107 97 95 97 104 104 103 101 98 93 88 85 78 75
108 166 216 214 201 213 205 187 168 129 136 186 177 67 123 142 154 160 165 170 176 180 179 173 165 154 146 141 134 132 128 129 125 125 121 112 109 105 101 104 103 97 90 89 88 84 78 73 61
161 192 219 234 219 215 203 206 167 146 194 207 191 170 153 162 167 174 177 179 182 182 183 183 177 167 158 149 149 146 136 134 137 140 136 125 112 104 95 90 87 83 79 69 70 67 61 65 65
188 226 217 236 196 195 205 184 183 190 216 219 188 163 163 173 181 185 184 184 178 180 189 187 183 177 170 162 164 163 161 160 160 161 153 141 134 133 131 124 117 99 86 88 72 67 61 58 57
209 240 230 246 254 230 200 207 209 232 261 118 137 156 175 182 190 192 186 180 179 186 190 190 186 184 177 172 175 177 180 179 174 168 169 161 155 159 157 153 145 136 118 114 102 82 66 48 33
212 229 269 289 272 219 194 245 203 245 164 139 155 175 188 191 189 183 184 187 190 192 192 188 190 188 181 183 185 185 186 183 179 181 180 174 167 166 166 169 171 171 161 151 143 134 90 19 358
164 200 284 261 222 229 152 269 230 231 144 167 186 190 196 201 193 197 196 195 194 193 188 189 191 188 188 190 190 188 188 184 189 189 183 181 177 174 172 177 186 188 170 156 138 121 66 345 329
136 164 239 262 196 193 160 245 256 187 163 190 203 204 207 212 210 210 203 199 194 189 188 191 190 191 194 193 190 189 190 191 194 188 183 187 186 179 176 184 195 182 165 164 168 172 211 280 288
151 189 211 258 211 172 176 233 263 173 185 206 210 212 216 223 228 221 207 201 196 194 191 190 191 192 196 195 191 191 190 196 196 188 188 190 190 186 184 193 193 174 170 180 183 187 195 244 268
187 187 195 213 224 173 198 237 266 220 204 223 221 219 222 227 230 221 210 204 198 196 194 194 195 195 191 189 187 191 197 202 197 195 196 191 193 192 190 194 190 175 177 190 193 202 204 230 259
167 172 194 220 228 180 218 240 255 246 221 239 236 226 227 234 238 225 212 203 197 198 199 199 198 196 188 189 195 199 206 202 201 202 199 197 195 192 192 192 187 183 194 201 193 188 206 227 192
166 181 197 241 142 184 243 259 258 245 228 224 225 225 228 237 244 230 215 204 204 206 206 204 204 198 195 198 195 190 184 193 198 197 200 200 198 195 194 196 194 193 198 199 194 185 185 200 174
198 187 183 187 66 47 314 289 262 257 231 236 231 229 229 229 236 231 217 212 209 210 208 207 206 202 200 194 180 167 167 167 188 200 203 203 199 197 197 200 197 195 196 203 202 195 192 201 193
213 183 163 157 145 244 190 264 267 247 249 240 236 230 232 232 231 228 218 214 213 216 210 207 204 202 198 191 189 188 198 205 204 195 195 196 198 200 201 202 201 199 199 205 203 197 194 185 197
171 151 149 152 150 281 239 242 271 257 251 248 236 231 231 230 226 226 220 216 215 211 204 204 201 201 196 195 197 198 207 209 189 180 189 198 200 203 203 203 201 201 201 203 195 190 193 193 193
125 90 67 62 89 249 220 205 269 225 222 236 235 230 230 230 226 229 228 215 213 201 196 195 196 202 196 197 200 202 205 199 187 189 194 197 194 199 204 200 198 197 197 197 193 191 192 195 193
144 124 118 158 211 244 179 199 250 229 224 221 229 232 230 227 224 224 221 212 207 198 195 193 194 201 197 198 202 204 204 200 199 195 196 191 191 195 200 190 190 190 190 185 177 177 181 181 181
177 160 166 182 206 252 198 228 250 234 244 251 256 260 262 243 229 225 222 213 208 200 193 191 195 199 195 198 202 202 199 198 200 195 190 191 191 190 181 177 176 175 172 168 162 160 161 155 162
161 188 156 133 136 224 241 265 294 260 260 255 254 255 251 242 229 225 221 209 201 192 190 190 190 193 194 196 195 196 194 194 191 185 183 178 173 164 159 154 153 153 150 149 144 144 145 140 142
160 149 136 159 170 224 259 245 243 247 235 240 239 238 243 236 225 216 206 196 188 180 170 169 179 186 187 188 190 191 190 188 181 171 170 163 158 153 148 144 142 136 130 130 128 125 126 121 116
143 161 166 163 175 177 234 256 223 213 214 224 236 244 248 239 224 208 194 179 165 153 151 154 161 162 168 176 177 176 175 170 164 163 162 156 149 149 145 143 138 133 127 126 124 119 120 118 110
156 173 163 176 204 191 209 263 244 224 243 250 262 263 250 232 213 193 178 166 165 165 160 158 157 157 160 157 155 157 151 150 151 150 148 145 141 138 135 134 129 125 123 122 124 123 120 121 116